Hagerstown, MD

2:56 AM EST on February 27, 2017 (GMT -0500)
Hagerstown Regional-Henson

Weather History for KHGR - May, 2013

Change the Weather History Date:

Friday, May 31, 2013

  Actual Average Record
Temperature  
Mean Temperature 79 °F 67 °F  
Max Temperature 90 °F 77 °F 93 °F (2011)
Min Temperature 68 °F 57 °F 41 °F (2001)
Degree Days  
Heating Degree Days 0 2  
Month to date heating degree days 143 154  
Since 1 July heating degree days 4927 5167  
Cooling Degree Days 14 4  
Month to date cooling degree days 91 61  
Year to date cooling degree days 117 76  
Growing Degree Days 30 (Base 50)    
Moisture  
Dew Point 61 °F    
Average Humidity 56    
Maximum Humidity 79    
Minimum Humidity 32    
Precipitation  
Precipitation 0.00 in 0.14 in 0.61 in (2008)
Month to date precipitation 1.90 4.03  
Year to date precipitation 9.86 16.20  
Sea Level Pressure  
Sea Level Pressure 30.11 in    
Wind  
Wind Speed 6 mph (South)    
Max Wind Speed 15 mph    
Max Gust Speed 21 mph    
Visibility 10 miles    
Events      
T = Trace of Precipitation, MM = Missing Value Source: NWS Daily Summary

Daily Weather History Graph

Daily Weather History Graph

Search for Another Location

Airport or City:

Trip Planner

Search our weather history database for the weather conditions in past years. The results will help you decide how hot, cold, wet, or windy it might be!

Date:

Astronomy

May. 31, 2013 Rise Set
Actual Time 5:45 AM EDT 8:32 PM EDT
Civil Twilight 5:13 AM EDT 9:04 PM EDT
Nautical Twilight 4:33 AM EDT 9:44 PM EDT
Astronomical Twilight 3:47 AM EDT 10:30 PM EDT
Moon 1:06 AM EDT (5/31) 12:57 PM EDT (5/31)
Length of Visible Light 15h 50m
Length of Day
14h 46m
Waning Gibbous, 51% of the Moon is Illuminated
May 31
Waning Gibbous
May 31
Last Quarter
Jun 8
New
Jun 16
First Quarter
Jun 23
Full

Hourly Weather History & Observations

Time (EDT) Temp. Heat Index Dew Point Humidity Pressure Visibility Wind Dir Wind Speed Gust Speed Precip Events Conditions
12:53 AM 75.9 °F - 64.9 °F 69% 30.15 in 10.0 mi SSE 4.6 mph - N/A   Clear
1:53 AM 73.9 °F - 64.9 °F 73% 30.14 in 10.0 mi SSE 4.6 mph - N/A   Clear
2:53 AM 73.0 °F - 64.0 °F 73% 30.14 in 10.0 mi South 4.6 mph - N/A   Clear
3:53 AM 72.0 °F - 64.0 °F 76% 30.14 in 10.0 mi SSE 4.6 mph - N/A   Clear
4:53 AM 70.0 °F - 63.0 °F 78% 30.15 in 10.0 mi South 4.6 mph - N/A   Clear
5:53 AM 69.1 °F - 63.0 °F 81% 30.16 in 10.0 mi South 4.6 mph - N/A   Clear
6:53 AM 70.0 °F - 63.0 °F 78% 30.17 in 10.0 mi South 4.6 mph - N/A   Clear
7:53 AM 73.0 °F - 63.0 °F 71% 30.17 in 10.0 mi South 8.1 mph - N/A   Clear
8:53 AM 75.9 °F - 63.0 °F 64% 30.17 in 10.0 mi SSW 4.6 mph - N/A   Clear
9:53 AM 78.1 °F - 62.1 °F 58% 30.16 in 10.0 mi SW 6.9 mph - N/A   Clear
10:53 AM 81.0 °F 81.3 °F 59.0 °F 47% 30.14 in 10.0 mi Calm Calm - N/A   Clear
11:53 AM 84.0 °F 84.0 °F 60.1 °F 44% 30.13 in 10.0 mi WSW 4.6 mph - N/A   Clear
12:53 PM 87.1 °F 87.0 °F 61.0 °F 41% 30.12 in 10.0 mi South 8.1 mph - N/A   Clear
1:53 PM 87.1 °F 85.7 °F 55.9 °F 35% 30.11 in 10.0 mi South 6.9 mph 18.4 mph N/A   Clear
2:53 PM 88.0 °F 86.7 °F 57.0 °F 35% 30.10 in 10.0 mi SW 8.1 mph 17.3 mph N/A   Clear
3:53 PM 90.0 °F 88.6 °F 57.0 °F 33% 30.07 in 10.0 mi SW 12.7 mph 19.6 mph N/A   Clear
4:53 PM 90.0 °F 87.9 °F 55.0 °F 30% 30.04 in 10.0 mi South 11.5 mph 20.7 mph N/A   Clear
5:53 PM 89.1 °F 88.0 °F 57.9 °F 35% 30.03 in 10.0 mi South 13.8 mph - N/A   Clear
6:53 PM 88.0 °F 87.9 °F 61.0 °F 40% 30.03 in 10.0 mi South 11.5 mph 18.4 mph N/A   Clear
7:53 PM 84.9 °F 85.9 °F 63.0 °F 48% 30.04 in 10.0 mi South 8.1 mph - N/A   Clear
8:53 PM 82.0 °F 83.1 °F 63.0 °F 52% 30.04 in 10.0 mi SSE 6.9 mph - N/A   Clear
9:53 PM 80.1 °F 81.5 °F 63.0 °F 56% 30.04 in 10.0 mi SSE 8.1 mph - N/A   Clear
10:53 PM 78.1 °F - 63.0 °F 60% 30.05 in 10.0 mi South 6.9 mph - N/A   Clear
11:53 PM 75.9 °F - 63.0 °F 64% 30.04 in 10.0 mi South 5.8 mph - N/A   Clear